QPF
0.00 0.00 0.00 0.00 0.00 0.00 0.00 0.00 0.00 0.00 0.00 0.00 0.00 0.00 0.00 0.00 0.00 0.00 0.00 0.00 0.00 0.00 0.00 0.00 0.00 0.00 0.00 0.00 0.00 0.00 0.00 0.02
0.00 0.00 0.00 0.00 0.00 0.00 0.00 0.00 0.00 0.00 0.00 0.00 0.00 0.00 0.00 0.00 0.00 0.00 0.00 0.00 0.00 0.00 0.00 0.00 0.00 0.00 0.00 0.00 0.00 0.00 0.00 0.00
0.00 0.00 0.00 0.00 0.00 0.00 0.00 0.00 0.00 0.00 0.00 0.00 0.00 0.00 0.00 0.00 0.00 0.00 0.00 0.00 0.00 0.00 0.00 0.00 0.00 0.00 0.00 0.00 0.00 0.00 0.00 0.00
0.00 0.00 0.00 0.00 0.00 0.00 0.00 0.00 0.00 0.00 0.00 0.00 0.00 0.00 0.00 0.00 0.00 0.00 0.00 0.00 0.00 0.00 0.00 0.00 0.00 0.00 0.00 0.00 0.00 0.00 0.00 0.00
0.00 0.00 0.00 0.00 0.00 0.00 0.00 0.00 0.00 0.00 0.00 0.00 0.00 0.00 0.00 0.00 0.00 0.00 0.00 0.00 0.00 0.00 0.00 0.00 0.00 0.00 0.00 0.00 0.00 0.00 0.00 0.00
0.00 0.00 0.00 0.00 0.00 0.00 0.00 0.00 0.00 0.00 0.00 0.00 0.00 0.00 0.00 0.00 0.00 0.00 0.00 0.00 0.00 0.00 0.00 0.00 0.00 0.00 0.00 0.00 0.00 0.00 0.00 0.00
0.00 0.00 0.00 0.00 0.00 0.00 0.00 0.00 0.00 0.00 0.00 0.00 0.00 0.00 0.00 0.00 0.00 0.00 0.00 0.00 0.00 0.00 0.00 0.00 0.01 0.00 0.00 0.01 0.01 0.00 0.00 0.00
0.00 0.00 0.00 0.00 0.00 0.00 0.00 0.00 0.00 0.00 0.00 0.00 0.00 0.00 0.00 0.00 0.00 0.00 0.00 0.00 0.00 0.00 0.00 0.00 0.00 0.01 0.01 0.02 0.04 0.03 0.01 0.01
0.00 0.00 0.00 0.00 0.00 0.00 0.00 0.00 0.00 0.00 0.00 0.00 0.00 0.00 0.00 0.00 0.00 0.00 0.00 0.00 0.00 0.00 0.00 0.00 0.00 0.00 0.00 0.01 0.02 0.03 0.03 0.01
0.00 0.00 0.00 0.00 0.00 0.00 0.00 0.00 0.00 0.00 0.00 0.00 0.00 0.00 0.00 0.00 0.00 0.00 0.00 0.00 0.00 0.00 0.00 0.00 0.00 0.00 0.00 0.00 0.00 0.01 0.02 0.03
0.00 0.00 0.00 0.00 0.00 0.00 0.00 0.00 0.00 0.00 0.00 0.00 0.00 0.00 0.00 0.00 0.00 0.00 0.00 0.00 0.00 0.00 0.00 0.00 0.00 0.00 0.00 0.00 0.00 0.01 0.02 0.04
0.00 0.00 0.00 0.00 0.00 0.00 0.00 0.00 0.00 0.00 0.00 0.00 0.00 0.00 0.00 0.00 0.00 0.00 0.00 0.00 0.00 0.00 0.00 0.00 0.00 0.00 0.00 0.00 0.00 0.00 0.01 0.01
0.00 0.00 0.00 0.00 0.00 0.00 0.00 0.00 0.00 0.00 0.00 0.00 0.00 0.00 0.00 0.00 0.00 0.00 0.00 0.00 0.00 0.00 0.00 0.00 0.00 0.00 0.00 0.00 0.00 0.00 0.00 0.01
0.00 0.00 0.00 0.00 0.00 0.00 0.00 0.00 0.00 0.00 0.00 0.00 0.00 0.00 0.00 0.00 0.00 0.00 0.00 0.00 0.00 0.00 0.00 0.00 0.00 0.00 0.00 0.00 0.00 0.00 0.00 0.00
0.00 0.00 0.00 0.00 0.00 0.00 0.00 0.00 0.00 0.00 0.00 0.00 0.00 0.00 0.00 0.00 0.00 0.00 0.00 0.00 0.00 0.00 0.00 0.00 0.00 0.00 0.00 0.00 0.00 0.00 0.00 0.00
0.00 0.00 0.00 0.00 0.00 0.00 0.00 0.00 0.00 0.00 0.00 0.00 0.00 0.00 0.00 0.00 0.00 0.00 0.00 0.00 0.00 0.00 0.00 0.00 0.00 0.00 0.00 0.00 0.00 0.00 0.00 0.00
0.00 0.00 0.00 0.00 0.00 0.00 0.00 0.00 0.00 0.00 0.00 0.00 0.00 0.00 0.00 0.00 0.00 0.00 0.00 0.00 0.00 0.00 0.00 0.00 0.00 0.00 0.00 0.00 0.00 0.00 0.00 0.01
0.00 0.00 0.00 0.00 0.00 0.00 0.00 0.00 0.00 0.00 0.00 0.00 0.00 0.00 0.00 0.00 0.00 0.00 0.00 0.00 0.00 0.00 0.00 0.00 0.00 0.00 0.00 0.00 0.00 0.00 0.00 0.00
0.00 0.00 0.00 0.00 0.00 0.00 0.00 0.00 0.00 0.00 0.00 0.00 0.00 0.00 0.00 0.00 0.00 0.00 0.00 0.00 0.00 0.00 0.00 0.00 0.00 0.00 0.00 0.00 0.00 0.01 0.01 0.01
0.00 0.00 0.00 0.00 0.00 0.00 0.00 0.00 0.00 0.00 0.00 0.00 0.00 0.00 0.00 0.00 0.00 0.00 0.00 0.00 0.00 0.00 0.00 0.00 0.00 0.00 0.00 0.00 0.00 0.01 0.01 0.01
MSLP
1014.91 1014.96 1015.07 1015.42 1015.62 1015.76 1015.76 1015.70 1015.50 1015.20 1014.98 1014.80 1014.47 1014.06 1013.80 1013.51 1013.28 1013.04 1012.96 1012.92 1012.85 1012.76 1012.67 1012.66 1012.60 1012.50 1012.45 1012.55 1012.65 1012.61 1012.24 1011.40
1015.21 1015.26 1015.21 1015.19 1015.09 1015.63 1015.68 1015.63 1015.50 1015.25 1014.90 1014.65 1014.29 1013.64 1013.57 1013.16 1012.95 1013.16 1013.06 1012.94 1012.78 1012.62 1012.49 1012.50 1012.49 1012.43 1012.33 1012.38 1012.45 1012.50 1012.23 1011.35
1015.32 1015.42 1015.53 1015.25 1015.02 1015.27 1015.29 1015.24 1015.16 1014.97 1014.70 1014.57 1013.84 1013.45 1013.30 1012.78 1012.96 1012.91 1012.82 1012.73 1012.62 1012.48 1012.27 1012.23 1012.35 1012.24 1012.08 1011.96 1012.09 1011.50 1011.03 1010.92
1015.45 1015.66 1015.75 1015.35 1015.02 1015.24 1015.09 1014.96 1014.98 1014.95 1014.98 1014.87 1014.17 1013.95 1013.45 1013.42 1012.87 1012.69 1012.37 1012.30 1012.14 1011.72 1011.59 1011.63 1011.85 1011.31 1010.39 1011.20 1011.25 1010.74 1010.22 1010.12
1015.62 1015.91 1016.02 1015.89 1015.58 1015.45 1015.19 1015.01 1015.23 1015.03 1015.07 1015.34 1014.72 1014.26 1013.68 1013.19 1012.89 1012.32 1012.24 1011.79 1011.31 1011.25 1010.89 1011.03 1010.29 1010.03 1009.52 1009.44 1009.74 1009.70 1009.70 1009.15
1015.94 1016.09 1016.19 1016.26 1015.90 1015.61 1015.71 1015.50 1015.80 1015.40 1015.43 1015.53 1015.06 1014.37 1014.07 1013.88 1013.22 1013.00 1012.46 1011.88 1011.84 1011.39 1011.05 1010.82 1010.37 1010.10 1009.29 1009.29 1009.03 1008.92 1009.13 1009.01
1016.14 1016.27 1016.41 1016.45 1016.06 1016.12 1016.23 1016.09 1015.87 1016.05 1015.59 1015.73 1015.70 1015.13 1014.64 1014.39 1013.84 1013.41 1012.89 1012.42 1012.09 1011.79 1011.46 1011.29 1010.99 1010.52 1009.93 1009.66 1009.44 1009.59 1009.41 1009.10
1016.36 1016.44 1016.58 1016.62 1016.37 1016.46 1016.26 1016.10 1016.23 1015.87 1015.79 1016.14 1016.08 1015.74 1015.29 1014.76 1014.18 1013.53 1013.07 1012.80 1012.72 1012.60 1012.16 1011.74 1011.14 1010.91 1010.40 1009.77 1009.40 1008.88 1008.76 1008.95
1016.58 1016.64 1016.78 1016.75 1016.48 1016.46 1016.30 1016.10 1016.24 1016.02 1015.94 1015.98 1016.22 1015.99 1015.68 1015.34 1014.39 1013.82 1013.42 1013.57 1013.19 1012.48 1011.99 1011.50 1011.01 1010.47 1010.25 1010.13 1009.53 1009.09 1008.96 1008.50
1016.66 1016.78 1016.97 1016.96 1016.83 1016.66 1016.60 1016.51 1016.46 1016.21 1016.15 1016.09 1016.32 1016.21 1015.94 1015.64 1014.73 1014.22 1014.08 1013.76 1013.02 1012.86 1012.59 1011.92 1011.34 1010.61 1009.84 1009.43 1009.25 1009.00 1008.84 1008.70
1016.55 1016.77 1017.08 1017.10 1016.94 1016.75 1016.73 1016.63 1016.40 1016.38 1016.32 1016.22 1016.72 1016.42 1016.39 1016.11 1015.25 1014.65 1014.55 1013.74 1013.32 1013.15 1013.03 1012.89 1012.18 1011.41 1010.38 1009.32 1008.61 1008.25 1008.21 1007.92
1016.72 1016.91 1017.21 1017.18 1016.76 1016.40 1016.07 1016.03 1016.27 1016.31 1016.40 1016.53 1016.96 1016.74 1016.61 1016.32 1015.49 1015.10 1014.92 1014.36 1013.88 1013.83 1013.87 1013.56 1012.93 1011.79 1010.69 1009.38 1008.54 1007.90 1007.44 1007.16
1016.82 1016.95 1017.25 1017.06 1016.61 1016.55 1016.41 1016.28 1016.33 1016.32 1016.44 1016.65 1016.80 1016.95 1016.85 1016.53 1015.97 1015.67 1015.43 1015.15 1014.98 1014.61 1014.35 1013.90 1013.18 1012.49 1011.23 1009.32 1007.78 1006.87 1006.41 1006.16
1016.82 1017.02 1017.32 1017.38 1017.09 1017.03 1017.04 1016.73 1016.45 1016.40 1016.43 1016.69 1016.66 1016.97 1016.93 1016.65 1016.52 1016.28 1016.07 1015.79 1015.52 1014.96 1014.86 1014.55 1013.92 1013.46 1012.71 1011.16 1008.22 1006.20 1005.07 1004.47
1016.88 1017.26 1017.41 1017.72 1017.71 1016.96 1016.80 1016.30 1016.00 1015.87 1016.52 1016.61 1016.86 1016.97 1016.98 1016.95 1016.76 1016.72 1016.55 1016.51 1015.89 1015.65 1015.35 1014.96 1014.34 1014.04 1013.59 1013.12 1010.64 1007.50 1007.21 1005.18
1017.01 1017.43 1017.56 1017.80 1017.90 1017.48 1017.44 1016.79 1016.52 1016.78 1016.68 1016.86 1017.04 1016.90 1016.91 1016.87 1016.79 1016.73 1016.72 1016.60 1016.26 1015.94 1015.55 1015.43 1014.97 1014.32 1013.82 1013.15 1012.43 1011.44 1010.06 1007.07
1017.13 1017.29 1017.64 1017.94 1018.07 1018.04 1017.65 1017.43 1017.30 1017.16 1017.07 1017.14 1016.94 1016.82 1016.77 1016.83 1016.90 1016.82 1016.76 1016.69 1016.45 1016.15 1015.82 1015.55 1015.18 1014.59 1014.07 1013.36 1012.52 1011.76 1011.15 1009.57
1017.10 1017.23 1017.52 1017.94 1018.19 1018.31 1018.25 1018.15 1018.00 1017.68 1017.47 1017.24 1017.02 1016.98 1016.74 1016.63 1016.86 1017.04 1016.72 1016.58 1016.53 1016.24 1015.86 1015.46 1015.08 1014.63 1014.17 1013.51 1012.79 1012.01 1010.99 1010.10
1017.14 1017.32 1017.51 1018.00 1018.35 1018.44 1018.45 1018.43 1018.31 1017.94 1017.70 1017.54 1017.65 1017.22 1017.07 1016.94 1017.12 1017.06 1017.13 1017.04 1016.67 1016.17 1015.67 1015.40 1015.09 1014.42 1013.76 1013.13 1012.81 1012.18 1011.39 1010.61
1017.31 1017.54 1017.70 1018.15 1018.50 1018.65 1018.61 1018.72 1018.50 1018.44 1018.43 1018.46 1018.08 1017.79 1017.53 1017.32 1017.20 1017.38 1017.33 1017.06 1016.53 1015.94 1015.58 1015.18 1014.68 1014.19 1013.63 1012.95 1012.48 1012.07 1011.31 1010.81
Thickness
5694 5693 5692 5690 5688 5687 5686 5686 5687 5689 5690 5690 5692 5694 5695 5696 5697 5699 5698 5697 5697 5696 5696 5695 5694 5694 5694 5692 5691 5691 5693 5698
5688 5686 5686 5686 5685 5682 5681 5681 5682 5683 5685 5686 5688 5692 5691 5694 5696 5694 5693 5693 5694 5694 5694 5693 5692 5691 5690 5689 5688 5688 5689 5695
5682 5681 5679 5680 5680 5678 5677 5678 5678 5679 5680 5682 5686 5688 5688 5692 5691 5692 5692 5691 5691 5691 5692 5692 5690 5690 5690 5689 5688 5690 5693 5694
5677 5675 5673 5675 5675 5673 5674 5674 5673 5673 5673 5673 5678 5680 5683 5684 5688 5688 5691 5691 5691 5693 5693 5692 5689 5691 5698 5693 5690 5692 5695 5695
5671 5668 5666 5666 5667 5667 5668 5669 5667 5668 5667 5665 5670 5674 5678 5681 5682 5686 5686 5689 5692 5692 5694 5692 5697 5698 5701 5702 5699 5697 5695 5698
5662 5661 5660 5658 5659 5660 5658 5659 5656 5660 5660 5660 5664 5668 5670 5671 5675 5676 5680 5684 5683 5686 5688 5689 5692 5693 5698 5698 5698 5699 5696 5696
5654 5654 5652 5651 5652 5651 5649 5650 5652 5651 5655 5653 5654 5658 5662 5662 5666 5669 5671 5674 5675 5676 5678 5679 5681 5684 5687 5689 5690 5688 5689 5690
5646 5645 5644 5643 5644 5642 5643 5644 5643 5646 5647 5644 5645 5648 5651 5654 5658 5662 5664 5665 5664 5664 5667 5669 5673 5674 5677 5682 5685 5687 5687 5685
5636 5636 5635 5635 5637 5636 5637 5638 5637 5638 5638 5638 5637 5639 5641 5643 5650 5653 5655 5653 5655 5659 5661 5664 5667 5671 5671 5670 5675 5678 5677 5681
5629 5628 5627 5627 5628 5629 5629 5629 5629 5630 5630 5630 5629 5630 5631 5633 5639 5643 5642 5642 5647 5647 5647 5651 5655 5659 5664 5667 5669 5670 5670 5670
5624 5622 5618 5617 5619 5621 5621 5621 5622 5622 5622 5622 5618 5620 5620 5621 5627 5630 5629 5633 5635 5635 5634 5634 5638 5642 5649 5657 5663 5665 5664 5667
5616 5614 5610 5610 5613 5616 5618 5619 5616 5615 5614 5613 5609 5609 5609 5611 5616 5617 5617 5620 5621 5619 5617 5618 5622 5630 5637 5646 5652 5657 5659 5660
5608 5606 5602 5603 5607 5606 5607 5607 5607 5606 5605 5603 5601 5599 5599 5599 5602 5602 5602 5603 5602 5603 5603 5605 5608 5612 5621 5636 5647 5652 5654 5655
5600 5598 5595 5593 5595 5595 5594 5596 5597 5597 5595 5593 5592 5588 5587 5588 5586 5586 5586 5586 5586 5589 5588 5589 5592 5592 5594 5605 5630 5644 5652 5653
5591 5588 5586 5582 5581 5588 5588 5591 5592 5592 5585 5583 5579 5578 5576 5574 5574 5571 5569 5567 5571 5571 5572 5574 5578 5576 5576 5575 5597 5622 5616 5631
5583 5578 5576 5574 5571 5575 5573 5577 5577 5574 5574 5571 5567 5566 5564 5562 5560 5557 5555 5554 5556 5556 5558 5558 5559 5562 5562 5564 5566 5571 5575 5601
5574 5572 5568 5564 5561 5559 5561 5561 5560 5560 5559 5557 5556 5554 5552 5549 5546 5545 5543 5542 5541 5542 5544 5544 5545 5548 5547 5550 5553 5554 5555 5566
5564 5562 5558 5553 5549 5546 5544 5543 5542 5543 5543 5543 5543 5541 5539 5538 5533 5529 5530 5531 5528 5528 5530 5531 5532 5534 5534 5536 5539 5540 5545 5549
5552 5549 5547 5540 5535 5532 5530 5528 5527 5528 5528 5527 5523 5525 5523 5522 5518 5516 5513 5512 5513 5515 5517 5517 5517 5521 5525 5527 5527 5528 5530 5533
5538 5535 5532 5526 5521 5517 5516 5513 5513 5511 5507 5504 5505 5505 5505 5504 5503 5499 5497 5497 5499 5502 5502 5503 5506 5508 5511 5515 5516 5516 5519 5520